User: anonymous   Login
Location: Milton Keynes
(52.0316°N, 0.7531°W)
Time: 04:39:29
(UTC+01:00)
Language:

LightSail 2 - Orbit

View from above orbital plane
View from above orbital plane
View from above satellite
View from above satellite

Ground track
Ground track

The orbit data is extracted from the following two-line orbital elements,

1 44420U 19036AC  20296.44010401  .00005578  00000-0  11693-2 0  9993
2 44420 024.0077 024.7227 0018387 068.3622 291.8827 14.56912727068841
Epoch (UTC): 22 October 2020 10:33:44
Eccentricity: 0.0018387
inclination: 24.0077°
perigee height: 690 km
apogee height: 716 km
right ascension of ascending node: 24.7227°
argument of perigee: 68.3622°
revolutions per day: 14.56912727
mean anomaly at epoch: 291.8827°
orbit number at epoch: 6884

The dashed part of the orbit path shows where the satellite is in the earth's shadow,  

DLR